Theta_e
338 335 332 328 311 307 301 305 310 310 312 317 320 318 315 318 316 308 328 336 339 339 343 348 351 349 347 349 346 345 345 344 341 339 337 335 335 334 331 331 333 333 334 334 334 334 335 334 333
333 333 331 319 305 298 301 308 307 310 316 321 323 321 319 315 326 326 326 339 340 342 344 345 351 350 348 346 345 343 343 342 339 337 336 335 335 331 330 331 332 332 333 333 333 334 334 333 333
332 335 318 312 303 299 300 308 309 314 318 320 319 323 321 317 330 328 333 341 342 343 345 346 350 349 348 344 341 339 338 338 338 336 334 334 331 330 330 331 331 330 330 331 332 331 331 331 332
329 322 317 309 304 308 307 310 313 316 318 321 322 318 323 328 331 333 340 342 341 342 345 349 352 350 347 342 340 338 335 335 335 336 333 332 330 330 331 331 332 330 330 331 331 332 332 332 332
324 317 308 305 304 313 314 313 315 314 316 317 322 318 319 331 336 338 339 341 340 341 342 347 352 349 344 341 339 336 335 336 335 335 333 331 330 331 331 332 333 332 332 333 334 334 335 335 335
318 315 305 301 306 308 309 313 314 313 317 319 320 318 319 334 334 336 338 339 342 341 342 345 351 348 344 341 337 334 333 335 335 334 332 331 332 332 333 333 335 334 334 334 335 336 335 335 334
315 311 306 306 306 308 309 311 313 316 319 319 324 317 322 330 335 336 337 339 342 343 343 343 344 342 343 340 336 334 332 332 331 330 330 331 332 334 335 335 336 336 335 335 335 334 336 334 334
317 312 308 307 306 307 310 310 315 319 319 326 328 318 315 327 338 340 339 339 341 342 343 340 339 337 335 332 337 335 334 332 329 329 331 335 337 335 335 337 336 337 337 335 333 334 333 332 332
318 306 302 305 306 306 309 310 314 320 322 323 326 324 326 338 340 335 334 335 338 340 340 340 337 334 332 331 332 336 336 333 332 331 331 326 326 324 327 329 335 337 335 333 332 332 331 329 327
311 304 305 309 310 307 313 315 316 317 318 322 323 324 335 338 336 333 332 331 333 336 338 339 336 332 330 334 330 330 331 328 326 322 322 320 322 326 325 332 335 331 329 329 330 330 328 322 319
308 304 307 310 313 315 318 319 322 321 315 319 322 321 331 335 334 334 333 333 333 335 338 339 335 332 329 329 328 329 327 326 325 322 321 319 321 320 318 317 316 318 324 319 319 320 319 319 317
308 312 312 314 317 319 318 323 320 321 322 328 328 325 322 331 332 333 333 333 331 333 336 340 337 332 329 328 326 329 327 326 323 322 322 319 320 321 320 318 318 318 319 319 318 318 319 320 319
308 311 315 319 319 319 321 319 321 321 329 330 328 325 320 319 325 330 333 333 330 330 336 337 337 334 329 327 327 327 326 326 324 321 322 320 320 321 321 319 318 318 319 318 318 317 318 319 319
313 312 313 315 316 318 318 318 321 325 332 326 324 322 320 320 318 317 316 318 316 324 330 335 336 334 328 327 327 327 325 325 323 320 321 321 320 320 321 319 318 319 318 317 317 318 318 318 318
313 310 312 313 315 316 317 313 316 327 330 325 324 326 325 322 322 321 318 316 314 316 323 328 331 330 328 328 327 325 324 324 322 321 322 323 320 320 322 319 318 320 318 317 317 318 318 318 319
308 307 302 309 316 316 313 306 320 327 325 323 322 324 327 328 327 326 322 317 314 318 322 326 332 327 326 325 325 323 323 322 321 321 321 323 322 322 322 320 319 320 319 318 317 317 317 317 318
301 299 302 306 317 316 312 308 319 322 322 321 322 324 324 324 325 323 327 317 314 319 323 324 325 323 323 324 324 323 324 322 321 322 321 323 323 323 321 321 320 320 319 318 317 317 315 316 317
297 299 302 303 313 312 309 310 317 321 324 322 321 323 323 321 323 325 322 316 318 321 323 323 322 322 324 323 322 321 320 319 319 320 323 325 323 325 320 322 321 320 319 318 317 317 316 315 315
301 302 303 308 314 310 310 310 312 314 318 318 318 320 322 322 326 323 320 318 319 320 321 321 321 323 322 321 319 320 318 319 319 319 322 325 324 324 320 321 320 319 319 319 319 317 316 315 316
305 305 304 309 313 309 309 308 313 313 315 317 318 320 322 322 322 323 320 319 318 317 319 320 321 322 321 321 320 319 319 320 321 322 323 325 324 323 320 321 319 319 318 319 319 317 315 314 316
304 305 306 306 309 309 308 304 307 313 319 319 321 324 323 320 319 322 322 320 318 317 318 319 320 322 322 321 320 320 320 319 320 320 321 323 324 324 322 322 320 318 318 317 319 317 316 315 316
296 307 310 308 302 298 306 295 304 310 312 316 315 318 318 318 320 325 325 321 319 318 319 319 320 321 321 320 320 319 318 316 319 319 321 322 323 323 324 323 321 320 317 317 318 318 318 316 317
301 310 309 306 302 299 302 297 302 308 307 311 315 316 317 318 320 324 325 324 322 321 319 320 320 321 322 320 320 319 318 319 321 322 322 323 322 324 325 323 321 320 318 318 318 319 317 317 317
310 305 302 300 298 293 299 299 298 302 307 312 315 316 320 319 322 325 325 326 325 323 321 320 320 320 321 321 320 322 322 321 320 321 320 320 321 322 322 323 322 321 320 319 319 320 320 319 318
305 298 292 290 292 292 300 299 300 307 311 315 316 316 320 320 320 322 325 324 325 323 323 323 321 319 321 321 322 322 323 324 322 321 320 320 321 321 322 322 321 320 320 320 320 321 320 321 320
303 300 294 288 289 293 302 298 303 311 315 317 319 319 319 319 320 319 324 326 325 325 325 325 325 323 323 323 323 323 324 325 323 323 322 321 320 320 323 322 322 322 322 322 322 322 322 321 321
303 300 302 295 294 294 298 304 308 311 313 316 316 317 317 318 320 321 320 325 327 326 325 325 326 327 327 327 327 326 326 326 325 325 324 324 324 324 323 324 324 323 322 323 323 323 324 323 321
303 304 297 294 290 289 296 298 299 305 308 311 313 315 316 318 319 319 319 321 329 328 328 328 328 329 331 331 331 330 327 328 328 326 325 325 325 324 326 324 323 323 323 325 328 325 319 317 316
301 299 298 296 296 292 291 296 306 306 309 312 314 315 315 315 317 318 318 325 329 328 328 328 329 329 329 330 331 331 331 328 328 327 326 325 325 325 326 325 325 324 326 321 318 314 312 311 311
304 301 299 294 293 296 295 296 308 309 313 315 314 315 315 315 316 315 320 323 326 328 328 329 329 330 329 327 328 330 329 327 326 326 327 326 325 325 325 326 326 324 316 313 311 309 308 307 306
Wind_Speed
4 3 3 4 5 5 2 3 2 2 1 1 3 4 5 2 3 3 3 5 7 10 7 7 10 8 7 7 6 6 7 8 7 6 6 5 4 4 4 4 4 5 6 7 6 6 7 7 7
3 3 4 3 6 4 5 4 1 3 2 7 5 3 3 2 3 4 5 5 8 10 6 6 11 9 8 7 7 6 6 6 6 5 5 4 4 3 3 3 4 5 5 6 7 7 8 7 6
2 3 4 6 4 2 3 4 3 2 3 2 3 4 3 4 2 7 3 10 9 7 6 6 11 10 10 8 7 6 5 4 5 4 3 3 3 3 3 5 6 6 7 7 7 7 7 7 7
2 4 5 5 2 3 4 4 4 5 3 3 3 5 3 1 7 6 12 12 10 7 6 9 12 11 10 8 7 6 5 4 5 5 3 2 2 2 3 5 7 7 7 7 7 7 7 6 6
4 3 5 4 2 4 4 4 8 6 2 2 3 3 3 3 6 11 13 12 11 6 6 5 12 11 10 8 7 6 6 5 7 5 3 1 1 3 4 6 8 9 9 9 9 8 8 7 7
4 3 5 3 5 5 5 5 6 4 3 3 4 4 3 1 5 9 9 7 6 7 5 5 10 11 10 9 8 8 7 6 5 3 1 1 2 4 5 6 8 9 10 10 10 9 8 8 9
5 4 2 2 3 6 3 2 5 5 3 2 7 5 1 1 5 7 8 7 7 6 5 4 4 8 9 8 9 9 7 6 4 3 2 4 5 6 6 6 7 9 10 10 11 9 10 9 10
5 4 1 3 3 6 2 3 4 7 2 2 0 3 3 4 9 8 7 6 6 5 5 5 5 5 6 5 10 9 7 5 2 1 4 7 8 7 7 7 6 9 9 9 10 12 11 10 10
4 5 2 5 4 2 4 4 3 2 4 2 1 3 2 15 13 7 5 4 4 5 6 6 6 5 5 4 5 8 7 4 3 4 5 3 3 3 5 5 5 6 8 8 10 10 10 9 9
4 3 6 4 5 5 4 9 4 5 5 2 2 6 11 15 12 11 9 8 7 9 9 8 6 5 6 4 3 4 3 3 2 3 2 2 3 2 4 6 6 7 6 7 9 10 11 9 4
1 2 2 3 3 9 8 8 10 7 4 5 3 6 10 11 10 11 11 11 15 10 5 7 7 6 3 1 1 2 2 2 1 1 2 2 3 3 3 3 3 2 5 3 5 5 4 5 4
1 3 4 4 6 7 9 7 3 5 4 6 9 9 9 10 11 13 12 12 10 9 10 9 7 7 9 3 4 4 3 2 1 1 1 2 1 2 2 2 2 2 2 3 3 3 4 4 4
1 1 2 9 8 4 6 7 3 3 3 3 6 7 7 8 10 9 9 8 6 8 9 8 8 8 6 5 2 3 3 3 3 2 1 2 2 1 1 1 1 2 1 2 3 3 3 4 5
4 5 4 3 4 3 3 3 3 2 8 2 7 6 4 7 8 3 6 8 7 6 7 6 9 7 6 6 5 4 4 4 3 3 3 3 3 1 1 1 1 1 2 2 2 2 3 3 3
3 6 4 2 3 1 2 3 3 3 7 3 4 4 4 6 8 10 11 9 7 5 7 9 8 7 7 7 5 4 4 4 4 3 4 3 3 3 3 1 0 1 1 3 3 3 3 3 3
3 5 3 2 3 3 4 6 5 6 6 5 5 5 4 5 4 5 10 14 9 9 10 8 7 7 7 4 4 4 4 4 4 4 3 5 5 3 3 2 1 1 1 2 2 3 3 3 4
7 1 1 2 4 2 1 3 5 6 6 5 7 6 6 5 5 7 11 10 11 12 11 9 8 8 7 6 3 3 4 4 4 3 3 4 5 4 3 3 2 2 1 1 1 2 2 2 4
1 2 1 2 8 7 4 1 4 4 1 4 4 4 6 6 5 6 8 6 6 8 9 9 7 7 6 4 3 3 2 2 3 3 4 5 4 5 4 2 3 2 1 1 1 2 2 1 3
1 2 3 1 4 2 4 3 4 7 1 4 5 7 7 8 4 4 4 6 7 7 10 9 9 7 5 3 3 2 3 3 3 4 6 6 5 5 5 3 3 2 2 1 0 1 3 2 4
5 5 2 1 3 2 4 4 6 4 5 3 5 7 7 8 7 4 5 3 2 6 8 8 9 8 6 3 3 3 3 2 2 2 4 5 6 5 5 5 4 4 2 2 1 2 1 0 3
2 7 5 5 1 3 5 6 6 5 3 4 5 4 3 6 8 3 5 2 5 7 9 10 10 9 6 5 3 2 2 0 0 2 3 4 6 5 5 5 4 4 3 3 2 2 3 1 1
3 8 9 10 4 1 4 5 6 6 8 5 5 2 4 7 5 3 2 4 4 7 6 7 7 7 5 6 3 4 4 4 3 3 3 3 6 6 6 5 5 5 3 4 3 3 2 2 1
3 4 8 6 4 4 1 3 10 4 7 5 2 3 5 6 5 6 4 2 5 4 6 5 6 6 6 7 6 5 4 3 2 2 3 3 4 5 5 6 6 4 3 3 4 4 4 2 2
7 8 10 6 3 3 3 3 6 4 5 7 0 2 2 6 7 6 3 2 2 3 4 5 6 7 7 7 6 7 6 5 3 3 3 3 3 3 5 5 5 5 4 5 5 4 5 4 4
8 6 4 4 4 5 5 1 9 6 6 4 8 9 9 4 5 7 6 4 4 7 8 5 7 9 8 8 7 8 7 6 6 5 3 4 3 3 5 5 6 4 5 5 4 4 4 4 3
5 7 6 4 4 4 3 4 6 4 7 6 7 8 9 9 6 7 7 7 6 7 7 9 7 6 4 5 8 5 6 4 5 4 3 4 3 4 3 5 5 6 5 4 4 4 4 5 5
4 1 5 9 3 3 4 7 10 6 8 7 9 9 10 9 9 9 8 7 9 8 10 11 6 8 12 12 11 6 5 6 6 7 5 5 4 4 5 5 5 4 5 5 5 5 5 4 3
2 5 4 4 4 2 4 6 7 6 7 8 9 9 10 8 9 8 10 8 6 3 5 3 8 8 8 5 6 8 7 7 6 4 6 6 6 5 4 5 5 5 5 6 6 3 2 4 3
3 2 7 6 4 6 1 7 7 4 2 6 8 8 9 10 9 9 8 4 2 3 7 8 8 10 10 6 8 10 7 6 5 7 7 7 6 5 5 6 5 6 6 4 3 4 4 4 3
1 2 4 6 4 1 4 8 2 4 3 4 8 9 8 6 8 8 7 5 3 4 7 9 8 8 11 14 6 5 5 4 6 6 8 5 7 5 7 6 6 4 3 4 5 5 3 4 4
Wind_Direction
150 155 129 41 50 62 359 334 304 311 131 241 177 141 173 91 151 210 342 156 115 134 147 167 170 163 160 149 132 115 117 119 122 116 106 87 69 62 55 52 46 26 10 9 12 19 22 20 15
161 139 56 67 75 55 293 261 277 253 156 116 88 72 54 91 99 123 112 150 129 133 141 157 167 161 158 150 131 119 116 120 119 115 103 83 45 28 51 36 23 7 7 10 9 10 10 12 7
147 58 77 87 97 135 244 271 187 40 164 359 101 63 112 140 52 157 131 130 126 130 141 172 166 164 159 151 138 127 125 134 138 124 89 49 24 33 47 28 15 7 9 14 16 15 7 357 351
62 17 43 76 345 244 208 273 158 138 258 45 114 72 44 287 152 167 139 141 137 143 150 183 168 164 160 149 137 120 109 127 143 129 119 75 29 21 32 22 25 31 32 31 28 27 17 9 356
36 51 38 39 294 264 249 251 157 172 191 177 116 132 92 359 91 129 144 153 149 138 152 188 172 165 160 149 131 118 111 110 130 135 117 95 343 345 358 7 9 16 21 19 13 9 1 355 340
39 100 41 357 310 288 289 172 165 177 183 166 87 112 146 91 114 144 136 130 129 143 164 178 174 169 160 149 139 132 130 126 125 135 146 250 300 322 335 346 345 355 5 3 0 359 355 351 347
114 83 214 243 313 344 295 101 166 176 165 275 148 118 318 179 104 126 121 116 127 137 153 167 158 173 164 158 148 135 132 137 146 162 247 285 290 291 304 318 321 332 349 351 352 359 8 13 359
107 94 107 258 196 255 240 23 8 37 336 34 217 178 210 190 125 108 101 114 130 146 151 171 171 177 169 177 155 141 140 142 144 268 300 299 285 290 307 298 310 312 327 339 0 18 19 10 0
136 74 220 250 169 244 73 57 6 339 89 322 49 171 191 128 127 111 115 112 128 176 181 184 182 183 176 181 171 150 148 139 56 13 356 47 45 4 310 271 267 317 345 0 11 14 18 20 1
106 121 219 208 199 123 85 109 112 46 343 319 9 37 119 133 149 161 175 181 189 199 198 189 181 187 176 188 165 142 109 85 63 39 50 56 59 35 41 34 48 39 17 28 37 30 32 36 11
24 314 272 343 17 140 133 117 171 145 255 234 216 162 152 154 169 187 195 192 201 202 196 185 183 184 173 262 159 144 133 111 45 19 66 50 60 34 43 40 23 4 11 16 22 14 19 22 23
337 283 223 194 148 150 166 167 76 141 187 276 243 170 154 174 190 198 205 205 193 182 201 190 173 172 191 175 175 178 164 158 199 238 142 118 92 61 72 53 9 12 355 15 19 6 353 12 30
176 265 341 6 11 41 108 44 144 150 223 254 147 159 180 193 204 224 233 216 196 191 189 190 180 194 177 184 190 184 186 172 202 212 217 164 160 150 106 62 59 349 353 13 6 9 0 356 9
189 89 98 47 14 326 40 15 40 235 353 238 162 170 168 209 233 238 244 238 209 188 179 170 191 184 169 192 188 190 175 185 188 196 215 184 172 180 133 79 13 6 14 14 4 7 1 359 9
95 94 113 237 168 144 14 32 310 12 354 347 78 59 322 225 195 226 241 238 199 185 174 181 182 169 185 195 189 188 188 181 188 209 213 201 183 202 161 164 223 267 15 8 16 18 13 33 10
118 75 149 254 359 8 74 294 300 17 15 0 9 35 357 291 286 245 220 228 180 161 170 160 173 173 184 177 167 187 173 170 184 200 206 214 206 183 162 203 246 237 52 22 22 19 6 13 18
8 225 258 79 80 178 167 264 301 52 19 336 323 346 328 346 290 289 300 210 175 169 145 152 146 162 158 153 157 179 152 181 189 206 218 228 222 196 180 217 227 199 100 66 19 42 31 1 351
204 176 318 27 333 41 42 185 298 6 287 286 300 284 298 321 299 348 331 108 136 138 140 132 141 153 145 125 117 101 145 199 198 220 218 224 220 202 183 201 211 191 148 77 52 42 12 337 339
350 89 91 23 337 10 357 290 314 314 281 311 313 349 330 318 14 21 55 97 120 127 131 145 149 175 148 147 143 165 199 204 207 211 221 225 208 190 181 187 194 178 157 221 36 83 33 358 355
107 108 58 46 1 41 342 308 300 275 258 245 309 319 324 323 341 34 78 96 114 132 148 161 174 175 182 164 165 164 169 198 192 221 229 221 206 190 179 189 202 187 169 219 192 109 95 7 8
173 146 177 186 41 35 355 316 320 286 304 281 268 244 342 327 308 313 80 156 146 165 179 180 184 184 179 173 137 115 100 72 298 233 247 224 198 196 190 202 200 177 188 209 190 164 155 156 224
236 182 146 130 86 210 61 286 307 311 320 305 330 263 306 352 306 349 153 182 212 205 201 187 183 183 188 175 183 184 175 187 216 213 213 209 186 196 195 199 201 193 197 216 213 181 186 165 232
271 137 126 96 96 92 313 84 273 341 321 299 327 312 322 327 328 325 294 233 208 217 219 202 187 191 187 186 199 194 200 222 226 241 243 226 194 199 201 200 199 197 207 227 221 209 201 195 185
149 69 42 60 73 34 277 125 287 279 245 312 250 340 329 349 346 313 293 253 59 274 189 219 202 225 207 195 198 204 204 228 240 232 217 214 224 212 222 210 204 203 197 212 228 228 223 214 219
79 69 40 347 6 229 323 16 241 264 289 245 295 309 308 269 284 277 280 255 189 205 213 223 215 226 222 207 208 198 217 220 226 230 209 208 221 247 240 200 200 201 212 216 221 235 246 232 221
201 155 155 223 182 260 350 255 263 249 295 288 285 284 293 316 303 274 258 240 217 220 240 215 247 291 252 234 226 217 210 214 236 238 224 228 225 221 216 201 211 220 220 222 220 229 232 221 235
169 100 138 106 24 66 264 289 306 327 319 326 320 319 309 310 307 303 284 239 222 212 185 207 217 27 31 336 317 272 227 214 232 232 220 229 237 235 214 214 214 222 231 237 229 234 238 228 228
115 142 72 24 135 216 282 290 243 305 323 335 336 328 316 307 315 311 307 279 227 176 136 175 96 111 124 205 277 283 276 234 223 234 230 237 244 230 217 224 223 222 237 239 234 207 195 177 198
7 39 52 113 118 158 177 264 218 219 328 323 311 302 298 306 309 297 315 335 179 205 94 139 143 167 172 200 190 254 261 263 249 238 230 220 233 216 213 227 222 220 213 182 161 167 185 209 236
110 135 138 119 215 149 149 272 329 221 257 316 318 319 321 321 322 326 321 335 341 261 154 154 168 181 197 209 196 222 239 241 262 258 252 201 230 219 222 224 225 214 150 164 177 181 191 213 236